Dewpoint
64 65 65 64 63 65 65 64 62 60 58 56 56 55 54 52 51 51 54 60 65 67 66 64 65 66 66 66 66 66 65 64 63 62 61 61 59 59 58 58 58 58 58
64 65 65 64 63 64 64 64 62 60 58 56 55 54 53 53 51 50 52 54 62 64 66 65 65 65 65 65 66 66 67 67 66 65 63 63 62 62 61 61 61 60 60
64 64 64 64 64 64 63 62 62 60 57 55 54 53 52 51 50 50 51 51 55 61 63 65 65 65 65 65 65 66 67 67 67 66 66 65 64 64 64 64 63 63 62
64 64 64 64 64 64 63 62 60 59 57 55 53 52 51 52 53 54 54 51 52 54 60 64 66 67 66 66 65 64 65 67 67 67 66 66 65 65 64 63 63 63 63
64 62 63 63 62 63 62 61 59 58 55 54 53 52 52 54 55 55 56 56 54 55 56 60 63 64 65 66 65 64 64 65 67 67 66 65 64 61 61 61 61 61 61
63 63 61 61 62 61 61 59 59 56 54 54 52 53 55 55 56 56 56 57 58 57 57 58 59 61 63 63 64 63 63 64 65 66 65 64 62 61 60 60 60 59 59
61 62 62 62 62 60 59 58 57 54 54 53 54 54 55 55 55 56 57 57 57 58 59 59 59 59 61 62 62 62 63 63 64 66 64 63 62 60 60 59 58 57 57
61 62 61 60 60 59 58 57 56 55 54 55 53 54 53 54 56 56 57 57 56 56 57 57 58 58 58 58 58 60 61 63 63 64 64 62 60 60 59 57 56 56 57
63 61 61 61 59 59 58 58 57 56 55 57 57 56 53 52 54 55 55 56 54 54 56 56 56 58 57 56 57 57 59 60 63 64 63 61 61 59 57 56 56 56 56
63 63 62 61 60 59 59 59 59 58 58 56 57 59 58 56 53 52 53 53 52 52 54 55 55 56 56 55 55 55 56 58 59 63 62 61 60 59 57 55 55 56 56
62 63 63 62 61 60 59 60 59 59 59 57 57 58 57 57 56 54 52 53 54 53 54 54 54 55 54 54 54 54 55 56 57 58 60 61 61 59 56 55 55 55 55
61 61 62 62 61 61 60 59 59 59 59 59 59 58 57 56 56 54 54 53 53 54 54 53 53 54 54 54 54 55 57 58 57 57 58 60 60 57 55 54 54 53 54
60 61 61 61 61 61 60 60 60 60 60 60 59 59 59 58 57 57 56 54 52 53 53 53 52 53 53 54 54 54 55 57 57 57 57 59 57 54 53 53 53 52 53
60 60 61 61 61 61 61 60 60 60 60 60 59 59 59 59 58 57 56 54 51 50 49 48 50 52 52 52 52 53 53 56 57 56 58 55 53 51 51 51 51 51 51
60 60 59 59 60 60 60 60 59 59 60 59 59 60 59 59 59 58 58 57 54 51 50 49 49 50 51 51 51 50 50 54 54 54 52 51 49 49 49 49 49 48 48
55 58 59 59 59 59 60 60 59 60 60 59 59 59 59 59 58 58 57 56 55 54 51 49 48 49 49 49 50 47 48 50 52 51 50 48 47 47 48 47 47 46 45
50 51 54 56 57 59 59 59 59 59 59 58 58 58 58 58 58 57 57 56 54 53 49 46 47 47 47 48 47 47 47 46 47 49 48 48 47 46 46 46 44 43 42
45 46 47 50 52 54 57 59 58 59 58 58 58 57 57 57 57 56 55 54 53 50 49 45 45 45 46 46 46 45 45 45 44 46 46 46 46 46 46 44 42 40 39
43 44 45 46 47 49 50 52 55 57 58 58 58 57 57 57 56 56 55 55 54 51 50 47 44 45 44 46 44 44 43 41 41 42 44 46 46 45 46 45 40 38 36
41 41 43 44 44 45 46 47 49 51 53 55 56 57 57 57 56 55 55 55 53 52 50 48 44 43 43 43 44 42 41 41 39 37 41 42 43 43 44 45 40 35 34
39 40 41 41 42 43 44 45 45 46 47 50 52 53 54 54 52 55 54 54 52 51 48 46 43 42 41 41 42 41 41 39 39 39 37 38 38 39 39 44 37 35 34
37 38 38 39 40 41 44 46 46 45 45 46 48 50 51 49 50 51 51 51 51 50 48 46 42 43 41 41 41 40 38 36 36 39 37 35 34 34 36 38 37 35 33
35 35 37 38 38 40 43 44 45 45 43 43 45 46 47 47 48 49 50 50 49 50 50 47 44 43 42 40 40 36 35 35 36 34 35 33 33 32 33 34 38 35 33
32 34 34 36 37 37 39 42 43 43 43 42 41 42 44 44 44 46 46 45 46 47 47 46 46 44 44 42 42 39 38 34 32 33 34 31 28 30 27 27 33 33 33
30 31 33 34 34 35 38 36 40 41 41 41 41 41 42 43 44 46 43 42 42 41 45 46 46 45 45 45 41 38 35 36 32 31 32 32 25 25 24 24 25 33 32
29 30 31 31 32 32 36 36 37 40 40 41 42 41 42 42 43 45 43 41 40 39 38 39 40 42 43 43 42 40 37 37 32 31 30 29 23 23 22 23 25 28 30
Lifted_Index
-2 -1 -1 -0 1 1 1 2 2 4 6 8 8 8 8 8 8 8 8 7 5 4 3 3 2 2 2 1 1 1 1 2 3 3 4 4 5 5 5 6 6 6 6
-2 -1 -1 0 1 1 1 2 3 4 6 7 8 8 8 8 8 8 7 6 5 4 3 3 2 2 2 1 1 1 1 1 1 2 3 3 4 4 4 4 5 5 5
-1 -1 -0 0 1 1 1 2 3 4 5 7 7 7 7 7 7 7 7 6 5 4 4 3 2 2 1 1 1 1 0 0 0 1 1 2 2 3 3 3 4 4 4
-1 -0 0 1 1 2 2 2 2 3 5 6 6 7 7 7 7 6 6 5 4 4 3 3 2 2 1 1 1 1 1 0 0 0 1 1 2 2 3 3 3 3 3
-0 0 1 1 2 2 2 1 2 3 4 5 5 6 7 7 6 5 5 4 3 3 3 3 2 2 2 1 1 1 1 1 1 1 1 1 2 3 3 4 4 4 4
1 1 1 2 2 2 2 1 2 3 4 4 4 5 6 6 5 4 4 3 3 2 2 2 2 2 2 2 2 2 2 1 1 1 1 2 3 4 4 4 5 5 5
2 2 2 2 2 2 2 2 2 3 3 3 4 5 5 5 4 4 3 2 2 1 1 1 1 2 2 3 3 3 2 1 1 1 1 2 3 4 5 5 5 5 5
2 2 2 1 1 1 1 2 3 3 3 3 4 4 4 4 3 3 2 1 1 0 0 0 1 1 2 3 3 3 3 2 1 1 1 3 4 4 5 6 6 6 6
1 1 1 1 1 1 1 2 2 3 3 3 3 4 3 3 2 2 1 0 0 -0 -0 -0 -0 0 1 3 4 4 4 3 2 1 2 3 4 5 6 6 6 6 6
1 1 1 1 1 1 1 1 2 2 3 3 3 3 2 2 2 1 0 0 0 -0 -0 -1 -0 0 2 4 5 6 5 4 3 2 2 3 4 5 6 6 6 6 6
1 1 1 1 1 1 1 1 2 2 2 2 2 2 1 1 1 1 0 0 1 1 0 -0 -0 1 2 4 6 6 6 6 5 4 3 3 4 5 6 6 7 7 7
1 1 1 1 1 1 1 1 2 2 2 1 1 1 1 1 1 1 1 1 1 1 1 1 1 1 3 4 6 7 7 6 6 5 4 4 4 5 6 7 7 8 7
1 1 2 1 1 2 2 2 2 2 2 1 1 1 1 1 1 1 1 1 1 2 2 1 2 2 3 5 6 7 7 7 6 6 5 5 5 6 7 8 8 8 8
1 1 2 2 2 2 2 2 2 2 2 2 1 1 1 2 2 2 1 1 1 2 2 2 3 3 4 5 6 7 8 7 7 7 6 6 7 7 8 8 9 9 9
2 2 2 2 2 2 2 2 2 2 2 2 2 2 2 2 2 2 1 1 1 2 2 3 3 3 4 5 6 7 8 8 8 8 8 8 8 8 9 9 9 9 10
3 3 2 2 2 2 2 2 2 2 2 2 2 2 2 2 2 2 1 1 1 2 2 3 3 3 4 6 7 7 8 8 8 8 9 9 9 9 10 10 10 10 10
4 4 4 4 3 3 2 2 2 2 2 2 2 2 2 2 2 2 2 2 2 2 2 3 3 4 5 6 7 7 7 7 7 8 9 9 10 10 10 10 10 10 10
8 7 7 6 5 4 3 3 2 2 2 2 2 2 2 2 2 2 2 2 2 2 3 3 3 4 4 5 6 7 7 6 6 7 9 10 10 10 10 10 10 10 10
10 10 9 9 8 7 6 4 3 3 2 2 2 1 1 1 1 1 2 2 2 2 2 3 3 3 3 5 6 6 6 6 6 8 9 10 11 11 11 11 11 11 11
12 12 11 11 10 9 8 7 6 5 4 3 2 2 1 1 1 1 1 1 1 1 2 2 2 2 3 3 4 5 5 6 7 8 9 10 11 11 11 11 11 12 12
14 14 14 13 12 11 10 9 8 7 6 5 4 3 2 1 1 1 1 1 1 1 1 2 2 2 2 3 3 4 5 6 7 9 10 10 11 11 11 11 12 12 12
17 16 16 16 15 14 13 12 11 10 8 7 7 5 4 3 2 1 1 1 1 1 1 1 2 2 2 3 4 5 6 7 8 9 10 10 10 11 11 11 12 12 12
18 18 18 18 17 17 16 14 13 12 11 9 8 7 6 5 4 3 2 1 1 1 1 1 2 2 2 4 5 5 6 7 8 9 10 9 10 10 11 12 12 12 13
19 19 19 19 19 19 18 16 15 14 13 11 9 8 7 6 5 4 3 2 2 1 1 2 2 3 4 4 5 5 6 7 8 9 9 9 9 10 11 12 12 12 13
21 21 21 21 20 20 19 18 16 15 14 13 11 9 8 7 6 5 4 3 2 2 2 3 3 4 5 5 6 6 6 7 7 8 9 8 9 10 11 12 12 13 13
23 22 22 22 22 21 19 18 17 15 14 13 12 10 9 7 6 5 4 3 3 3 3 3 3 4 5 6 7 7 7 7 7 7 8 8 9 10 11 12 12 13 14